Wetbulb
79.07 75.74 77.78 78.27 78.27 77.30 76.74 75.57 75.90 75.97 75.58 74.19 75.87 73.95 72.45 72.17 73.53 75.14 74.30 78.82 78.06 77.72 77.82 78.17 77.59 77.57 78.10 78.42 77.81 77.40 77.23 76.79 77.06 76.48 76.06 76.37 75.95 75.31 75.46 75.92 75.49 75.69 75.42
78.57 78.84 77.72 78.10 75.13 76.40 76.60 77.08 77.08 76.44 76.05 74.99 73.96 74.48 73.78 72.88 72.12 73.28 74.65 75.52 78.26 77.25 78.11 78.22 77.98 77.50 77.40 77.29 77.92 77.91 77.50 77.41 76.93 76.93 76.76 76.15 75.80 75.65 75.42 75.27 76.00 75.60 75.52
80.65 80.44 77.40 77.25 76.73 77.77 78.36 78.54 78.20 76.51 75.35 74.52 74.99 72.61 72.77 72.57 71.80 72.74 72.20 71.27 73.48 78.23 78.15 77.85 77.68 77.27 77.08 76.96 77.17 78.19 77.59 76.95 76.75 76.33 76.58 76.28 75.87 75.92 76.03 75.60 75.35 75.98 75.75
79.57 80.21 76.38 75.58 78.10 78.18 77.48 76.99 74.73 74.55 74.58 73.66 73.92 73.24 72.52 72.72 72.89 71.83 71.73 72.08 71.77 71.36 76.77 78.02 77.29 77.17 76.98 77.19 76.36 76.31 76.28 76.18 75.82 76.53 75.75 76.43 76.10 75.84 75.79 76.00 75.65 75.30 75.55
78.63 78.69 77.63 78.17 77.53 76.87 76.97 75.60 76.08 76.14 72.94 73.09 71.71 70.30 72.07 70.47 71.67 71.36 71.38 72.38 72.26 72.02 72.33 77.05 77.25 76.48 76.94 76.90 76.61 76.00 76.07 75.92 75.94 75.45 75.83 76.03 76.20 75.75 75.34 75.24 75.59 75.44 75.29
79.22 79.24 77.20 79.66 77.70 76.68 77.24 77.40 78.59 77.26 73.70 72.51 70.14 69.85 70.90 70.89 71.63 71.27 71.38 70.99 71.36 71.19 71.21 72.06 74.31 73.92 76.54 76.83 76.29 75.99 75.93 75.54 75.31 75.48 76.15 75.98 75.95 75.80 75.02 75.27 75.04 74.91 75.13
80.12 80.83 77.97 77.67 78.03 77.44 78.09 78.02 77.62 75.18 72.29 72.83 69.28 68.65 68.60 70.75 71.24 68.68 69.51 70.27 70.40 71.89 70.92 71.27 73.08 70.82 70.70 74.65 75.64 75.77 75.99 76.17 75.26 75.09 75.07 75.02 75.19 75.30 74.94 74.79 74.58 74.56 74.61
80.04 79.67 79.68 78.17 78.82 78.20 79.24 77.00 77.35 73.89 72.08 71.35 69.43 67.83 65.47 67.00 67.38 67.97 70.30 69.51 69.55 69.30 69.17 69.29 70.04 70.63 71.25 69.92 70.50 73.20 73.45 75.32 75.90 75.68 75.21 74.85 74.75 74.58 74.33 74.86 74.54 74.44 74.30
79.87 80.84 80.36 79.93 80.22 80.14 77.47 78.05 76.23 73.71 69.19 70.36 71.35 68.15 64.95 62.21 64.99 68.50 68.00 68.26 69.87 68.33 68.40 68.74 68.90 69.25 70.84 68.60 70.17 70.66 73.25 72.97 72.42 73.94 74.88 75.00 74.29 73.92 73.77 73.78 74.02 74.25 73.88
78.85 79.17 79.90 79.94 80.37 79.08 77.73 76.29 75.40 73.23 72.26 67.95 69.92 70.98 70.56 69.14 64.60 62.40 66.11 66.57 67.40 65.81 67.31 65.78 65.93 66.83 68.09 68.21 69.86 71.70 71.31 70.09 71.18 72.38 73.33 73.69 73.67 73.97 74.04 74.21 74.21 74.16 73.97
79.45 78.80 79.60 79.54 79.68 79.68 79.32 75.89 74.22 72.12 71.25 71.17 69.43 68.82 69.21 68.12 67.56 63.22 59.10 60.97 62.66 64.08 64.74 64.97 64.13 65.02 65.99 68.75 68.26 69.52 72.23 71.68 70.92 71.09 71.01 71.27 72.58 73.46 72.86 72.53 72.98 74.25 74.72
78.64 79.18 79.24 80.04 80.34 78.92 76.29 74.28 73.85 73.50 72.41 72.17 71.56 71.24 68.43 64.83 63.26 61.79 59.67 59.26 59.41 60.92 62.49 63.20 64.25 66.08 65.94 66.80 70.02 71.40 71.27 70.99 70.37 69.59 69.78 70.49 71.22 71.59 71.85 71.32 71.88 72.54 73.87
76.24 78.02 78.85 79.76 78.59 78.39 76.82 75.96 74.43 73.58 72.78 72.41 72.23 70.44 69.02 66.43 65.50 63.54 61.22 59.08 58.18 60.28 61.76 63.57 63.77 65.06 66.53 66.64 66.85 70.70 69.98 69.71 68.97 67.80 67.62 68.12 68.78 69.54 70.05 70.04 70.37 69.89 70.42
77.18 79.75 78.59 78.30 77.48 76.46 75.06 75.59 73.88 72.44 73.06 72.61 71.82 70.35 68.94 67.16 65.78 64.18 61.76 59.24 57.56 57.92 59.69 60.92 64.21 65.42 65.23 64.54 67.07 69.46 67.17 67.16 66.67 65.85 65.34 65.42 65.81 66.40 67.55 67.89 68.55 69.23 69.97
76.93 78.59 78.13 76.92 76.46 75.47 75.11 74.70 72.24 72.56 72.88 72.81 71.67 70.71 68.16 67.03 65.78 64.39 63.75 62.01 58.26 54.95 56.24 60.78 61.56 63.91 64.43 64.61 65.50 66.39 64.54 64.85 65.30 64.98 64.32 64.15 64.19 65.27 65.79 66.64 66.98 67.29 68.37
79.59 79.25 77.46 76.70 75.14 74.69 74.32 73.98 72.54 73.16 72.71 72.31 70.04 69.14 68.00 67.23 65.66 65.13 63.81 62.47 60.80 59.37 56.87 60.40 61.12 63.18 63.56 64.78 65.92 64.32 62.24 63.67 63.43 63.33 63.42 63.26 63.75 64.20 64.26 64.64 65.62 66.10 66.69
79.94 79.70 76.56 75.15 74.25 74.11 71.99 71.65 72.51 73.69 72.01 71.08 69.70 68.22 68.03 68.25 66.22 64.78 64.23 63.12 60.50 60.58 58.22 59.89 61.53 62.61 62.39 62.99 62.38 61.51 61.19 59.67 59.86 62.53 63.45 63.54 63.04 63.17 63.69 63.91 64.07 64.73 65.71
80.85 80.12 77.16 74.48 74.00 73.73 73.60 72.98 72.41 72.07 70.81 69.17 68.61 68.17 67.64 66.51 66.52 65.96 64.10 62.14 60.68 61.89 59.91 57.83 59.12 60.67 60.82 61.38 60.43 58.91 58.27 58.92 59.05 61.10 62.19 62.93 62.90 62.77 62.29 62.66 62.82 62.73 63.45
79.56 79.50 77.64 75.07 74.50 73.68 73.06 73.50 73.03 72.23 70.57 69.34 68.27 67.79 67.25 66.86 66.11 65.14 63.04 61.88 61.49 61.81 59.57 58.11 58.16 60.35 60.08 59.25 57.88 57.54 56.98 57.25 58.35 61.05 62.17 62.27 62.47 62.56 62.29 61.67 61.10 60.42 59.49
79.63 78.21 76.33 74.79 72.87 72.68 73.45 73.16 72.78 71.13 70.10 68.38 68.71 68.08 67.61 66.72 64.29 63.12 62.08 62.42 61.40 58.86 57.73 57.93 58.68 57.63 56.68 57.18 56.81 54.55 54.08 55.67 55.92 58.07 59.91 61.09 62.79 63.24 63.28 62.20 61.60 60.79 59.00
78.70 74.90 73.70 73.10 73.45 73.42 72.34 72.28 71.92 70.18 68.98 68.46 67.91 68.04 67.34 65.88 64.71 63.20 61.57 60.56 59.23 56.41 56.87 58.24 57.29 55.98 54.10 53.97 53.03 53.72 52.90 53.49 55.05 57.32 57.49 58.86 60.81 61.85 62.80 62.88 63.27 62.84 60.50
77.06 76.15 72.38 72.61 72.64 71.71 67.03 67.40 70.28 70.10 68.84 68.13 67.67 67.95 67.69 65.59 63.49 61.83 61.70 59.94 58.91 56.86 57.95 57.99 56.35 53.49 52.59 52.79 52.89 52.06 51.70 52.22 54.67 59.39 58.92 59.21 61.51 60.60 62.01 63.89 63.86 61.92 60.28
76.51 75.27 73.88 72.81 71.29 68.44 62.27 63.58 64.66 66.74 66.96 67.93 68.12 66.96 65.52 62.99 63.36 61.23 59.82 58.85 59.28 60.27 61.25 59.30 57.17 53.26 52.13 52.48 51.64 50.84 51.79 54.83 56.70 58.02 59.36 57.96 60.70 59.64 62.48 64.75 62.58 60.57 59.57
74.79 74.44 73.75 73.48 71.59 65.08 60.30 61.29 62.43 67.25 67.44 67.81 67.59 67.25 65.73 64.36 54.93 55.63 56.77 57.16 57.73 59.64 59.59 57.44 58.19 55.06 53.69 53.24 52.17 53.02 53.18 54.99 59.19 60.77 61.18 57.24 59.88 59.48 62.01 63.42 62.98 60.99 59.18
73.23 72.36 72.50 72.12 70.82 64.89 58.32 59.05 62.69 65.34 65.73 67.09 67.20 65.93 64.31 58.79 51.90 52.04 54.51 55.80 56.34 56.95 57.04 56.47 56.77 55.54 54.47 53.30 53.59 53.08 52.38 53.32 53.01 56.94 57.66 54.95 59.97 61.04 62.27 63.46 65.97 62.09 58.41
72.39 70.75 72.88 70.56 67.62 65.59 57.43 56.53 62.75 66.23 65.47 65.37 65.83 55.88 53.21 53.10 50.11 49.58 52.91 54.77 54.60 52.90 53.55 53.41 56.63 57.11 54.36 52.86 53.67 53.42 53.56 51.59 52.98 52.85 56.44 52.49 56.70 61.48 60.68 62.63 62.50 60.21 58.59
MSLP
1016.62 1016.64 1016.34 1015.96 1015.69 1015.73 1015.71 1015.62 1015.63 1015.57 1015.37 1015.17 1015.04 1015.04 1015.11 1015.02 1014.71 1014.67 1014.64 1015.04 1015.34 1015.33 1015.18 1015.18 1015.24 1015.48 1015.58 1015.84 1016.16 1016.27 1016.50 1016.64 1016.88 1017.16 1017.38 1017.38 1017.58 1017.83 1018.04 1018.24 1018.43 1018.57 1018.73
1016.37 1016.36 1016.03 1015.49 1015.44 1015.39 1015.62 1015.63 1015.49 1015.49 1015.34 1014.98 1014.96 1014.70 1014.70 1014.60 1014.44 1014.37 1014.37 1014.52 1014.52 1014.31 1014.44 1014.52 1014.80 1015.02 1015.17 1015.18 1015.61 1015.75 1016.00 1016.13 1016.21 1016.42 1016.76 1017.03 1017.08 1017.30 1017.55 1017.78 1017.98 1018.20 1018.37
1016.12 1016.00 1015.90 1015.92 1015.38 1015.31 1015.30 1015.44 1015.40 1015.27 1015.33 1015.04 1015.04 1014.85 1014.70 1014.58 1014.50 1014.42 1014.34 1014.26 1013.97 1013.97 1014.06 1014.42 1014.37 1014.64 1014.75 1014.86 1014.92 1014.99 1015.18 1015.56 1015.72 1015.82 1016.00 1016.31 1016.67 1016.74 1016.98 1017.28 1017.53 1017.73 1017.95
1015.80 1015.75 1015.65 1015.90 1015.44 1015.33 1015.23 1015.32 1015.75 1015.81 1015.77 1015.54 1015.29 1015.04 1014.81 1014.50 1014.35 1014.21 1014.15 1014.08 1013.86 1013.67 1013.81 1013.98 1014.10 1014.14 1014.40 1014.32 1014.48 1014.69 1014.52 1014.77 1015.12 1015.28 1015.32 1015.65 1015.90 1016.11 1016.38 1016.60 1017.03 1017.31 1017.48
1015.45 1015.45 1015.35 1015.51 1015.44 1015.48 1015.32 1015.72 1016.04 1016.16 1016.02 1015.74 1015.40 1015.23 1014.90 1014.59 1014.30 1013.91 1013.92 1013.71 1013.53 1013.55 1013.65 1013.55 1013.93 1014.26 1014.16 1014.05 1014.14 1014.28 1014.19 1014.14 1014.34 1014.66 1014.88 1015.07 1015.21 1015.45 1015.63 1015.90 1016.19 1016.65 1016.93
1015.03 1015.16 1015.32 1015.28 1015.53 1015.62 1015.63 1015.89 1016.15 1016.17 1016.08 1015.96 1015.79 1015.55 1014.95 1014.50 1014.23 1014.06 1013.98 1013.44 1013.50 1013.44 1013.56 1013.74 1013.80 1013.78 1013.85 1013.66 1013.86 1013.93 1013.85 1013.80 1013.85 1013.90 1014.09 1014.48 1014.59 1014.75 1014.98 1015.19 1015.48 1015.89 1016.16
1014.88 1015.08 1015.40 1015.32 1015.36 1015.51 1015.60 1015.88 1016.08 1016.13 1016.09 1015.93 1016.01 1015.97 1015.04 1014.09 1014.34 1014.44 1014.13 1013.73 1013.65 1013.58 1013.56 1013.65 1013.60 1013.69 1013.62 1013.65 1013.66 1013.54 1013.62 1013.57 1013.59 1013.58 1013.66 1013.76 1013.80 1013.92 1014.08 1014.33 1014.70 1015.02 1015.44
1014.77 1014.93 1015.15 1015.35 1015.25 1015.30 1015.48 1015.83 1015.94 1016.20 1016.20 1015.98 1016.14 1016.21 1015.80 1014.84 1014.55 1014.69 1014.28 1013.92 1013.99 1013.64 1013.52 1013.48 1013.37 1013.26 1013.18 1013.23 1013.22 1013.20 1013.15 1013.06 1013.08 1013.17 1013.20 1013.19 1013.25 1013.24 1013.39 1013.50 1013.82 1014.16 1014.47
1014.35 1014.71 1014.96 1015.19 1015.41 1015.60 1015.82 1015.86 1016.01 1016.18 1016.47 1016.25 1015.94 1016.18 1015.99 1015.81 1015.76 1014.95 1014.55 1014.16 1013.97 1013.76 1013.61 1013.34 1013.04 1012.88 1012.77 1012.73 1012.76 1012.70 1012.62 1012.70 1012.70 1012.72 1012.72 1012.71 1012.74 1012.81 1012.90 1013.06 1013.06 1013.38 1013.58
1013.87 1014.38 1014.73 1014.88 1015.14 1015.42 1015.65 1015.70 1015.78 1016.22 1016.49 1016.45 1016.14 1015.92 1016.02 1016.02 1015.87 1015.34 1014.70 1014.47 1014.16 1014.06 1013.83 1013.58 1013.14 1012.73 1012.58 1012.46 1012.25 1012.13 1012.08 1012.02 1012.04 1012.14 1012.21 1012.22 1012.31 1012.42 1012.47 1012.51 1012.58 1012.54 1012.81
1013.39 1013.71 1014.15 1014.53 1014.82 1015.16 1015.48 1015.55 1015.93 1016.19 1016.36 1016.46 1016.56 1016.38 1016.11 1015.75 1015.45 1015.43 1015.24 1014.88 1014.26 1014.11 1013.86 1013.56 1013.33 1012.79 1012.36 1012.04 1011.96 1011.73 1011.70 1011.69 1011.78 1011.88 1011.87 1011.75 1011.63 1011.66 1011.81 1011.99 1012.05 1012.09 1012.08
1013.16 1013.37 1013.65 1014.00 1014.39 1014.91 1015.24 1015.49 1015.85 1016.09 1016.13 1016.22 1016.37 1016.33 1016.08 1015.95 1015.69 1015.59 1015.54 1015.25 1014.97 1014.34 1013.72 1013.44 1012.90 1012.50 1012.10 1011.77 1011.52 1011.35 1011.27 1011.34 1011.37 1011.38 1011.28 1011.19 1011.16 1011.08 1011.09 1011.14 1011.29 1011.41 1011.42
1012.61 1012.97 1013.47 1014.12 1014.41 1015.00 1015.42 1015.63 1015.83 1016.02 1015.96 1016.04 1016.00 1016.10 1016.00 1016.03 1015.94 1015.83 1015.78 1015.47 1015.15 1014.58 1013.90 1013.04 1012.75 1011.99 1011.56 1011.56 1011.54 1011.34 1011.22 1011.01 1010.94 1010.87 1010.82 1010.68 1010.53 1010.36 1010.31 1010.36 1010.40 1010.58 1010.69
1012.16 1012.21 1012.94 1013.32 1014.19 1014.59 1015.22 1015.80 1016.13 1015.98 1015.76 1015.74 1015.69 1015.85 1016.06 1016.17 1015.97 1015.99 1016.26 1016.06 1015.18 1014.70 1014.16 1013.40 1012.44 1011.88 1011.66 1011.69 1011.41 1011.10 1011.05 1011.17 1010.88 1010.43 1010.09 1009.87 1009.70 1009.55 1009.58 1009.54 1009.60 1009.78 1009.94
1011.74 1012.04 1012.44 1012.90 1013.56 1014.96 1015.34 1015.75 1015.98 1015.68 1015.50 1015.30 1015.47 1015.55 1015.84 1016.03 1016.00 1015.88 1015.94 1016.00 1015.67 1014.76 1014.22 1013.37 1012.90 1012.44 1011.73 1011.42 1011.23 1010.71 1010.78 1010.85 1010.41 1009.56 1009.00 1008.75 1008.60 1008.48 1008.50 1008.54 1008.73 1008.87 1009.10
1011.48 1011.87 1012.16 1012.71 1013.77 1014.38 1014.46 1014.45 1015.33 1015.27 1015.28 1015.24 1015.45 1015.41 1015.85 1015.96 1016.10 1015.92 1015.87 1015.70 1015.54 1014.99 1014.16 1013.84 1013.14 1012.58 1012.21 1011.43 1010.64 1010.20 1010.12 1010.08 1009.44 1008.62 1007.90 1007.60 1007.47 1007.42 1007.50 1007.62 1007.73 1007.90 1008.11
1010.98 1011.28 1011.87 1012.74 1013.58 1013.99 1014.24 1014.68 1014.17 1014.81 1014.99 1015.10 1015.29 1015.27 1015.55 1015.78 1015.85 1015.92 1015.71 1015.41 1015.42 1015.10 1014.51 1013.78 1013.31 1012.53 1011.96 1011.24 1010.61 1010.23 1009.64 1009.16 1008.50 1007.48 1006.73 1006.28 1006.20 1006.18 1006.31 1006.46 1006.59 1006.82 1007.08
1010.45 1010.92 1011.91 1012.50 1013.32 1013.51 1013.82 1014.13 1014.22 1014.26 1014.41 1014.71 1015.04 1015.20 1015.40 1015.45 1015.65 1015.67 1015.52 1015.52 1015.25 1014.77 1014.58 1013.88 1013.20 1012.42 1011.80 1011.23 1010.48 1009.95 1009.20 1008.18 1007.48 1006.66 1005.88 1005.28 1004.91 1004.95 1005.02 1005.21 1005.44 1005.68 1006.01
1010.04 1010.71 1011.58 1012.24 1012.76 1013.56 1013.82 1013.50 1014.06 1014.29 1014.39 1014.46 1014.64 1014.89 1015.25 1015.25 1015.39 1015.47 1015.38 1015.32 1015.06 1014.66 1014.52 1013.96 1013.06 1012.58 1011.80 1011.23 1009.90 1009.28 1008.27 1007.28 1006.35 1005.42 1004.75 1004.18 1003.78 1003.55 1003.76 1004.02 1004.39 1004.73 1005.07
1009.60 1010.36 1011.29 1012.17 1012.74 1013.31 1013.38 1013.66 1013.99 1014.02 1014.44 1014.66 1014.69 1014.86 1015.07 1015.02 1015.16 1015.28 1015.26 1015.19 1015.06 1014.87 1014.27 1013.69 1013.33 1012.58 1012.19 1011.17 1010.17 1008.96 1007.14 1006.35 1005.15 1004.35 1003.79 1003.30 1002.90 1002.56 1002.55 1002.86 1003.21 1003.60 1004.06
1009.38 1010.11 1010.95 1011.34 1011.87 1011.77 1012.18 1012.75 1013.08 1013.44 1013.89 1014.36 1014.56 1014.78 1014.85 1014.84 1014.91 1015.11 1015.09 1015.33 1015.18 1015.01 1014.16 1013.57 1013.28 1012.79 1012.14 1010.87 1009.97 1008.72 1007.32 1005.74 1004.20 1003.33 1002.75 1002.42 1002.14 1001.82 1001.56 1001.56 1001.87 1002.39 1002.87
1009.03 1009.72 1010.26 1010.78 1011.44 1011.84 1011.64 1012.54 1012.99 1013.67 1013.80 1014.23 1014.34 1014.59 1014.80 1014.81 1014.95 1015.05 1015.30 1015.02 1014.95 1014.86 1014.04 1013.63 1013.40 1013.24 1012.43 1011.65 1010.18 1008.64 1007.18 1005.52 1003.69 1002.55 1002.22 1001.73 1001.46 1001.22 1000.94 1000.62 1000.38 1000.92 1001.60
1008.88 1009.50 1010.12 1010.59 1011.26 1011.74 1012.38 1012.29 1012.86 1013.37 1013.52 1013.94 1014.12 1014.41 1014.57 1014.42 1014.63 1014.93 1015.09 1015.06 1014.80 1014.43 1013.70 1013.57 1013.42 1013.71 1012.92 1011.97 1010.57 1008.77 1007.06 1005.42 1003.82 1002.72 1002.36 1001.49 1000.87 1000.60 1000.16 999.65 999.45 999.82 1000.43
1009.44 1010.30 1010.94 1011.41 1011.68 1012.58 1012.96 1013.28 1013.62 1013.77 1014.04 1013.95 1014.07 1014.10 1014.17 1014.41 1014.90 1015.09 1015.08 1014.88 1014.68 1014.26 1013.58 1013.34 1013.34 1013.39 1013.20 1012.18 1010.73 1009.19 1007.53 1005.61 1003.46 1002.44 1002.06 1001.36 1000.36 999.80 999.45 999.08 998.70 998.86 999.56
1010.00 1010.47 1010.07 1011.83 1012.66 1013.60 1013.68 1013.64 1014.00 1013.88 1013.86 1013.84 1013.81 1013.87 1014.10 1014.85 1015.28 1015.10 1015.06 1014.98 1014.66 1014.10 1013.32 1012.76 1012.60 1012.53 1012.20 1011.61 1010.48 1009.01 1007.25 1005.79 1004.24 1002.70 1002.66 1002.43 1000.51 999.46 998.47 998.02 997.73 997.78 998.75
1010.10 1011.10 1011.36 1010.90 1012.38 1013.82 1014.30 1014.58 1014.02 1014.17 1014.02 1013.66 1013.72 1014.44 1014.66 1015.24 1015.36 1015.39 1015.33 1015.08 1014.51 1013.98 1013.39 1012.55 1012.26 1011.83 1011.54 1011.13 1010.46 1009.65 1008.38 1006.89 1005.46 1003.89 1003.25 1003.09 1001.00 999.58 998.12 998.31 998.31 998.61 999.29
Wind_Speed
2 2 4 4 4 4 1 4 3 3 3 7 5 2 5 6 5 3 1 7 7 7 10 11 12 12 12 13 14 15 15 16 15 15 16 15 14 13 13 13 14 13 13
1 3 5 4 2 5 2 3 3 4 5 3 4 2 3 5 5 5 1 5 12 14 16 14 13 12 12 11 13 15 16 17 16 17 16 16 16 15 15 14 14 14 14
0 4 5 5 4 2 4 5 6 2 5 5 4 5 4 5 5 5 3 5 5 14 14 11 12 11 11 11 12 15 16 17 17 17 17 17 17 16 16 16 16 16 16
6 4 4 1 1 2 3 3 5 5 5 4 4 3 3 3 3 6 4 3 3 4 8 14 13 12 11 13 12 12 14 17 18 18 17 17 18 18 18 18 17 17 17
4 4 3 3 4 4 2 6 4 4 4 5 5 5 5 4 3 4 5 3 6 4 3 5 11 9 14 13 12 12 13 14 15 17 18 18 18 18 19 19 19 19 18
4 3 4 2 2 5 4 3 2 3 3 3 6 7 6 5 2 4 4 3 5 4 5 4 3 5 8 13 8 10 12 12 13 15 17 19 19 19 19 20 19 20 20
2 2 2 4 5 3 2 3 0 4 4 2 3 5 8 5 2 6 6 3 4 4 5 5 2 0 2 4 10 11 11 11 11 11 12 14 19 20 20 20 20 20 21
4 4 3 4 5 2 2 4 2 1 3 4 1 2 4 5 7 10 5 5 4 2 4 6 5 5 4 3 5 11 11 12 13 13 12 12 13 15 20 20 21 20 21
7 5 4 4 4 2 0 1 3 0 2 3 2 3 3 2 4 4 9 5 6 4 4 6 5 6 4 5 6 7 11 5 9 10 11 11 11 13 13 16 20 22 22
8 7 6 6 6 3 3 2 4 2 2 3 4 3 2 4 3 7 3 3 5 7 5 5 5 6 4 4 7 9 11 12 12 8 9 11 12 11 12 12 14 18 22
8 8 8 8 6 3 2 4 3 2 2 2 3 3 4 5 3 3 5 8 8 4 5 4 6 5 7 5 4 5 3 5 8 9 13 14 14 14 14 13 14 16 19
6 7 7 5 3 4 4 3 4 3 3 0 2 4 3 3 3 3 4 5 6 9 8 7 6 4 5 5 7 8 8 7 6 9 11 13 15 16 16 16 16 17 18
6 9 8 5 4 3 1 3 3 4 3 3 3 3 3 4 3 3 3 6 7 8 8 9 8 5 5 4 6 10 17 12 10 10 10 13 16 17 17 17 18 19 20
4 9 10 9 6 6 5 4 2 4 5 4 4 3 2 4 3 3 3 8 10 8 8 10 9 5 5 7 10 17 8 18 22 24 24 24 19 18 17 17 17 16 17
4 9 11 9 8 4 3 4 4 5 5 5 3 4 3 2 3 4 4 4 7 12 10 9 8 10 11 11 15 11 9 17 28 28 27 23 24 21 16 16 16 15 14
7 7 9 7 9 8 7 8 5 7 6 2 2 2 2 2 4 4 4 5 7 9 11 9 10 10 12 12 17 14 15 22 24 27 27 24 22 22 21 21 19 17 16
9 8 10 10 8 8 6 6 7 4 5 4 3 1 3 2 3 4 4 4 6 7 11 10 11 12 14 15 12 16 16 15 13 25 24 24 22 22 21 22 22 20 18
8 8 9 7 9 9 7 9 7 6 6 5 4 4 2 3 4 5 3 5 7 6 8 14 13 12 14 16 16 17 16 15 14 20 26 23 23 20 22 21 21 20 18
10 9 8 7 7 5 8 6 6 5 2 2 3 2 3 4 5 3 4 5 7 6 9 9 12 11 12 14 19 16 16 15 13 23 23 24 24 22 17 17 17 17 17
10 9 10 7 5 6 7 5 4 4 2 3 4 1 4 5 3 5 4 6 6 8 9 9 10 11 13 17 14 15 15 12 13 12 16 18 19 18 18 20 18 19 19
9 8 8 10 10 12 8 7 5 5 5 5 2 4 5 5 8 4 3 4 6 8 8 8 8 10 14 18 16 14 15 15 15 11 10 9 8 8 9 17 16 23 20
10 11 12 10 8 6 6 11 8 4 3 1 3 3 4 6 5 9 2 11 10 9 9 5 7 11 16 18 13 14 15 13 6 3 5 7 6 7 8 9 15 20 22
9 10 10 8 6 6 6 10 7 2 2 3 2 3 3 5 6 4 7 10 11 14 7 5 7 8 14 18 16 18 18 16 6 7 6 7 5 7 8 8 11 17 19
7 5 3 3 5 5 8 9 7 2 2 2 4 3 3 2 6 5 5 7 8 9 7 7 3 4 10 17 17 15 14 14 10 7 4 4 4 8 7 8 15 16 20
5 5 8 3 7 5 5 9 5 3 4 5 5 4 4 9 5 8 5 7 8 8 9 11 6 3 10 23 24 14 13 12 11 7 7 7 5 8 7 9 10 15 17
6 3 2 8 7 6 2 3 2 3 5 3 3 7 13 7 5 4 4 5 7 9 10 12 9 5 5 8 18 16 12 12 10 7 10 9 7 4 3 5 8 7 8
Wind_Direction
66 253 263 287 311 116 26 18 43 286 282 291 197 328 349 319 262 235 172 156 227 220 217 208 212 219 219 226 232 230 225 224 222 222 229 224 221 222 226 224 224 219 213
40 305 304 272 193 81 45 299 262 267 281 303 357 303 255 245 299 340 272 201 211 199 222 214 215 223 231 226 225 229 233 233 227 223 223 227 225 221 221 225 231 219 219
217 270 263 311 36 54 223 225 254 14 348 0 359 329 352 346 342 348 315 280 259 218 223 222 219 233 232 233 235 226 227 232 231 230 221 223 225 221 220 222 225 225 221
192 244 273 113 320 289 255 0 43 3 354 335 321 344 329 312 287 272 268 302 323 327 209 226 223 225 230 237 239 245 245 237 232 230 231 226 224 221 220 216 224 226 226
178 217 288 116 35 314 338 47 28 355 336 312 324 340 306 305 289 347 298 265 255 250 278 190 225 234 249 249 248 258 254 247 239 238 235 235 230 225 222 222 215 224 226
205 196 282 123 101 284 79 61 352 317 315 340 1 317 304 279 217 257 298 320 29 348 23 3 203 228 263 267 248 260 256 247 244 241 238 239 236 231 225 222 219 221 223
272 171 263 277 191 230 125 130 43 3 328 42 11 330 305 299 73 359 330 13 307 47 5 298 308 8 318 312 260 256 265 263 256 252 252 253 246 235 228 225 220 220 222
194 237 221 283 277 270 252 136 139 272 295 14 307 296 324 332 6 339 339 316 67 338 331 319 320 291 245 252 271 302 298 260 252 258 258 254 258 256 243 229 223 222 222
196 206 233 243 301 263 52 139 107 216 332 316 246 205 306 331 319 313 318 327 336 305 293 279 279 273 243 240 261 254 265 278 263 263 265 257 256 264 266 259 240 227 222
185 204 205 229 222 240 61 259 99 83 331 289 323 36 332 246 271 304 317 323 317 337 340 321 307 303 308 259 255 256 257 259 268 271 260 263 263 262 262 266 267 249 231
183 195 198 209 223 133 289 118 111 170 287 298 10 337 297 281 317 323 318 326 328 320 295 317 311 294 276 285 282 269 318 273 256 259 273 262 249 247 253 261 266 265 256
185 195 210 211 137 165 163 162 193 203 225 288 300 271 298 312 321 330 317 314 298 309 321 296 271 293 291 270 283 304 300 298 272 271 265 263 258 253 249 254 258 262 268
202 189 184 153 170 148 226 201 175 234 219 222 260 285 299 331 334 332 322 309 316 302 289 318 306 274 279 333 326 344 318 299 308 304 283 271 262 252 248 252 254 258 264
264 150 167 165 178 164 192 216 227 225 226 207 216 249 319 300 342 343 346 313 307 317 308 284 308 307 341 324 311 310 325 333 313 300 290 275 257 254 252 251 246 251 255
234 148 163 180 149 166 196 196 238 224 245 223 231 208 214 340 326 346 299 340 315 314 308 307 331 332 321 325 305 306 320 315 296 291 284 277 272 257 241 235 233 234 239
234 153 163 157 153 182 188 179 244 240 229 133 252 35 23 294 347 293 338 312 297 299 312 322 314 322 311 311 305 320 312 306 293 286 281 277 268 261 251 243 233 230 229
210 164 165 157 171 196 176 231 201 258 195 176 230 250 257 294 279 327 296 299 322 322 307 314 309 311 310 302 321 310 307 300 288 285 277 273 264 258 251 239 235 228 226
201 168 164 172 184 190 181 213 219 240 181 189 210 241 289 304 310 284 325 333 299 317 316 316 308 315 312 318 310 311 304 296 288 282 285 281 274 255 249 235 228 222 219
210 178 168 174 173 181 220 190 224 232 199 225 223 249 304 299 285 357 315 304 312 322 321 309 310 321 316 323 312 302 294 290 280 283 276 272 270 258 241 219 217 217 220
209 176 162 170 173 213 226 209 215 173 202 252 231 356 286 293 347 314 318 303 343 325 314 308 320 320 331 327 312 308 302 294 292 283 278 273 268 264 242 227 218 216 215
154 156 153 169 190 207 200 202 197 161 182 227 4 269 281 8 334 309 357 352 329 315 307 323 315 332 332 329 321 316 305 306 297 277 264 263 257 256 242 231 226 226 217
164 163 172 190 192 207 212 171 151 188 143 226 231 276 342 315 14 91 40 353 325 299 307 336 334 338 336 328 318 319 310 308 313 291 283 273 254 251 255 245 210 212 209
160 171 183 179 169 106 116 112 114 127 149 232 326 297 321 337 50 13 357 330 312 310 341 352 338 348 345 332 327 323 321 311 288 281 275 276 261 265 254 249 212 201 197
154 150 107 124 147 139 126 112 128 143 232 268 271 276 287 309 58 31 335 321 321 317 348 335 336 324 2 339 339 323 311 306 305 270 261 272 272 258 259 251 241 212 197
131 145 142 131 92 118 132 134 162 184 237 245 242 22 357 76 43 26 346 318 315 327 325 314 276 345 10 354 341 334 343 337 342 314 44 341 302 295 254 253 241 200 180
114 95 145 119 122 119 64 144 82 319 308 341 21 81 64 58 359 335 319 317 320 321 316 315 319 283 318 333 349 348 336 343 343 328 10 325 301 284 317 3 57 88 86